Hourly Data Report for November 10, 2019

OTTAWA INTL A
ONTARIO
Current Station Operator: NAVCAN

45°19'00.000" N
75°40'00.000" W
114.90 m
6106001
71628
YOW

Download Data

Hourly Data (November 2019)
Hourly Data Report for November 10, 2019
TIME Temp Definition
°C
Dew Point Definition
°C
Rel Hum Definition
%
Wind Dir Definition
10's deg

Wind Spd Definition
km/h
Visibility Definition
km
Stn Press Definition
kPa
Hmdx Definition


Wind Chill Definition


Weather Definition


00:00 1.2 -3.7 70 19 16 24.1 99.85     LegendNANA
01:00 1.4 -3.6 69 20 16 24.1 99.80     Cloudy
02:00 1.9 -3.3 68 20 18 24.1 99.79     LegendNANA
03:00 2.0 -3.0 69 18 18 24.1 99.74     LegendNANA
04:00 1.4 -2.4 76 18 18 24.1 99.73     Cloudy
05:00 1.5 -2.4 75 18 19 24.1 99.66     LegendNANA
06:00 1.6 -2.5 74 18 13 24.1 99.60     LegendNANA
07:00 1.6 -2.2 75 19 13 24.1 99.60     Cloudy
08:00 1.8 -1.7 78 19 16 24.1 99.62     Snow
09:00 2.3 -1.3 77 20 14 24.1 99.59     Snow
10:00 3.1 -0.7 76 20 16 24.1 99.55     Cloudy
11:00 4.2 0.0 74 22 20 24.1 99.56     LegendNANA
12:00 4.7 0.1 72 23 20 24.1 99.56     LegendNANA
13:00 4.7 0.7 76 24 20 24.1 99.55     Cloudy
14:00 5.1 1.1 75 25 18 24.1 99.58     LegendNANA
15:00 5.0 1.0 75 26 16 24.1 99.67     LegendNANA
16:00 2.1 0.8 91 34 20 24.1 99.81     Rain
17:00 1.0 -0.2 92 31 17 24.1 99.92     Rain
18:00 0.6 -1.7 84 31 19 24.1 100.04     LegendNANA
19:00 -0.1 -3.0 81 33 21 24.1 100.19   -6 Cloudy
20:00 -0.8 -4.3 77 34 20 24.1 100.24   -6 LegendNANA
21:00 -1.7 -6.2 72 34 21 24.1 100.33   -8 LegendNANA
22:00 -2.4 -7.1 70 33 16 24.1 100.41   -8 Cloudy
23:00 -3.1 -8.2 68 34 16 24.1 100.51   -8 LegendNANA

Notes on Data Quality.

Legend

  • E = Estimated
  • M = Missing
  • NA = Not Available*
  • [empty] = Indicates an unobserved value
Date modified: